Tracking 28096 objects as of 28-Sep-2023
HD Live streaming from Space Station
objects crossing your sky now

STARLINK-5609

Track STARLINK-5609 now!
10-day predictions
STARLINK-5609 is classified as:


NORAD ID: 55348
Int'l Code: 2023-013T
Perigee: 565.5 km
Apogee: 567.0 km
Inclination: 43.0 °
Period: 95.8 minutes
Semi major axis: 6937 km
RCS: Unknown
Launch date: January 26, 2023
Source: United States (US)
Launch site: AIR FORCE EASTERN TEST RANGE (AFETR)
Your satellite tracking list
Your tracking list is empty




NASA's NSSDC Master Catalog

Two Line Element Set (TLE):
1 55348U 23013T   23271.58816605  .00000635  00000-0  62067-4 0  9997
2 55348  43.0019 113.2046 0001084 277.6755  82.3964 15.02531866 37361
Source of the keplerian elements: AFSPC